Probability
0 0 0 0 0 0 0 0 0 0 0 0 0 0 0 0 0 0 0 0 0 0 0 0 0 0 0 0 0 0 0 0 0 0 0 0 0 0 0 0 0 0 0
0 0 0 0 0 0 0 0 0 0 0 0 0 0 0 0 0 0 0 0 0 0 0 0 0 0 0 0 0 0 0 0 0 0 0 0 0 0 0 0 0 0 0
0 0 0 0 0 0 0 0 0 0 0 0 0 0 0 0 0 0 0 0 0 0 0 0 0 0 0 0 0 0 0 0 0 0 0 0 0 0 0 0 0 0 0
0 0 0 0 0 0 0 0 0 0 0 0 0 0 0 0 0 0 0 0 0 0 0 0 0 0 0 0 0 0 0 0 0 0 0 0 0 0 0 0 0 0 0
0 0 0 0 0 0 0 0 0 0 0 0 0 0 0 0 0 0 0 0 0 0 0 0 0 0 0 0 0 0 0 0 0 0 0 0 0 0 0 0 0 0 0
0 0 0 0 0 0 0 0 0 0 0 0 0 0 0 0 0 0 0 0 0 0 0 0 0 0 0 0 0 0 0 0 0 0 0 0 0 0 0 0 0 0 0
0 0 0 0 0 0 0 0 0 0 0 0 0 0 0 0 0 0 0 0 0 0 0 0 0 0 0 0 0 0 0 0 0 0 0 0 0 0 0 0 0 0 0
0 0 0 0 0 0 0 0 0 0 0 0 0 0 0 0 0 0 0 0 0 0 0 0 0 0 0 0 0 0 0 0 0 0 0 0 0 0 0 0 0 0 0
0 0 0 0 0 0 0 0 0 0 0 0 0 0 0 0 0 0 0 0 0 0 0 0 0 0 0 0 0 0 0 0 0 0 0 0 0 0 0 0 0 0 0
0 0 0 0 0 0 0 0 0 0 0 0 0 0 0 0 0 0 0 0 0 0 0 0 0 0 0 0 0 0 0 0 0 0 0 0 0 0 0 0 0 0 0
0 0 0 0 0 0 0 0 0 0 0 0 0 0 0 0 0 0 0 0 0 0 0 0 0 0 0 0 0 0 0 0 0 0 0 0 0 0 0 0 0 0 0
0 0 0 0 0 0 0 0 0 0 0 0 0 0 0 0 0 0 0 0 0 0 0 0 0 0 0 0 0 0 0 0 0 0 0 0 0 0 0 0 0 0 0
0 0 0 0 0 0 0 0 0 0 0 0 0 0 0 0 0 0 0 0 0 0 0 0 0 0 0 0 0 0 0 0 0 0 0 0 0 0 0 0 0 0 0
0 0 0 0 0 0 0 0 0 0 0 0 0 0 0 0 0 0 0 0 0 0 0 0 0 0 0 0 0 0 0 0 0 0 0 0 0 0 0 0 0 0 0
0 0 0 0 0 0 0 0 0 0 0 0 0 0 0 0 0 0 0 0 0 0 0 0 0 0 0 0 0 0 0 0 0 0 0 0 0 0 0 0 0 0 0
0 0 0 0 0 0 0 0 0 0 0 0 0 0 0 0 0 0 0 0 0 0 0 0 0 0 0 0 0 0 0 0 0 0 0 0 0 0 0 0 0 0 0
0 0 0 0 0 0 0 0 0 0 0 0 0 0 0 0 0 0 0 0 0 0 0 0 0 0 0 0 0 0 0 0 0 0 0 0 0 0 0 0 0 0 0
0 0 0 0 0 0 0 0 0 0 0 0 0 0 0 0 0 0 0 0 0 0 0 0 0 0 0 0 0 0 0 0 0 0 0 0 0 0 0 0 0 0 0
0 0 0 0 0 0 0 0 0 0 0 0 0 0 0 0 0 0 0 0 0 0 0 0 0 0 0 0 0 0 0 0 0 0 0 0 0 0 0 0 0 0 0
0 0 0 0 0 0 0 0 0 0 0 0 0 0 0 0 0 0 0 0 0 0 0 0 0 0 0 0 0 0 0 0 0 0 0 0 0 0 0 0 0 0 0
0 0 0 0 0 0 0 0 0 0 0 0 0 0 0 0 0 0 0 0 0 0 0 0 0 0 0 0 0 0 0 0 0 0 0 0 0 0 0 0 0 0 0
0 0 0 0 0 0 0 0 0 0 0 0 0 0 0 0 0 0 0 0 0 0 0 0 0 0 0 0 0 0 0 0 0 0 0 0 0 0 0 0 0 0 0
0 0 0 0 0 0 0 0 0 0 0 0 0 0 0 0 0 0 0 0 0 0 0 0 0 0 0 0 0 0 0 0 0 0 0 0 0 0 0 0 0 0 0
0 0 0 0 0 0 0 0 0 0 0 0 0 0 0 0 0 0 0 0 0 0 0 0 0 0 0 0 0 0 0 0 0 0 0 0 0 0 0 0 0 0 0
0 0 0 0 0 0 0 0 0 0 0 0 0 0 0 0 0 0 0 0 0 0 0 0 0 0 0 0 0 0 0 0 0 0 0 0 0 0 0 0 0 0 0
0 0 0 0 0 0 0 0 0 0 0 0 0 0 0 0 0 0 0 0 0 0 0 0 0 0 0 0 0 0 0 0 0 0 0 0 0 0 0 0 0 0 0
Wind_Speed
3 3 4 4 4 4 4 5 5 5 6 7 7 8 8 8 7 7 8 8 9 9 8 7 8 8 7 6 6 7 8 8 14 8 5 6 7 9 9 11 9 12 13
2 2 2 3 3 4 4 5 5 6 6 7 7 8 9 9 8 8 9 9 9 10 11 10 10 8 9 7 7 8 8 8 11 14 7 5 9 10 11 12 10 11 9
3 1 1 2 3 4 5 5 6 6 7 7 7 8 9 10 10 10 10 10 10 11 11 12 12 10 11 8 9 9 8 8 9 11 10 6 7 5 7 8 8 6 8
4 2 1 2 3 4 5 6 6 7 7 8 8 9 9 10 12 11 11 11 11 12 11 12 13 12 13 11 10 10 9 9 9 11 10 6 6 4 6 7 7 8 9
3 2 2 3 4 5 6 7 8 8 10 10 12 12 12 11 11 12 12 13 14 16 15 14 14 16 20 17 14 11 9 10 10 11 11 7 7 6 7 6 10 8 10
2 1 2 4 5 6 7 8 10 11 11 13 14 15 16 14 21 27 23 17 17 19 20 18 16 16 21 27 30 28 23 16 13 13 12 13 12 11 8 8 9 9 11
1 1 3 4 5 6 8 10 12 13 14 15 15 15 17 19 27 28 28 21 20 19 20 20 18 16 17 16 22 28 27 30 30 20 18 19 15 10 11 13 12 13 10
1 2 2 3 4 6 8 10 12 12 13 14 16 16 18 19 26 28 29 22 20 20 20 20 21 21 19 21 19 19 20 20 23 18 18 19 14 9 12 15 14 13 8
0 1 2 3 5 7 9 11 11 12 13 14 15 15 16 18 25 29 29 17 16 20 19 19 20 21 26 30 24 21 22 21 25 32 32 30 30 27 17 10 12 11 14
1 2 2 3 5 8 10 11 10 11 13 14 15 14 15 15 24 29 29 14 15 16 16 17 21 25 28 30 22 19 22 21 16 16 21 26 24 23 27 19 16 15 11
2 2 3 4 6 8 9 9 10 12 13 13 15 15 14 16 21 26 27 15 14 16 15 15 15 27 31 32 30 22 25 25 18 18 17 16 15 14 15 16 16 16 16
1 3 5 6 7 7 8 9 9 10 12 12 12 13 12 13 17 22 28 27 26 19 17 16 18 30 34 35 28 28 36 32 18 17 17 16 15 14 13 14 16 18 16
2 4 6 7 7 7 8 10 9 8 9 11 11 12 13 12 14 25 27 30 31 22 18 28 33 37 36 27 29 35 28 18 17 18 18 16 14 12 11 11 13 15 16
4 5 6 6 7 6 7 8 8 8 10 11 12 13 14 13 12 12 13 16 21 21 19 23 33 36 32 28 23 21 16 16 17 17 16 13 11 11 12 12 12 11 12
4 5 5 6 6 6 7 7 10 10 12 15 13 13 15 14 17 28 24 17 16 18 21 17 15 15 14 14 14 14 14 15 16 15 14 13 13 13 12 11 11 11 12
4 4 4 5 5 6 7 9 16 18 24 26 26 24 18 23 31 32 33 33 34 33 24 15 15 14 15 14 14 13 13 13 14 13 12 12 12 11 11 10 10 12 12
5 5 4 5 6 6 7 8 11 16 22 24 24 26 25 28 30 31 31 31 29 27 14 13 14 15 15 14 13 13 13 13 11 11 10 10 9 9 9 10 11 11 11
5 6 6 5 5 6 7 8 8 10 13 14 18 24 27 28 29 29 28 23 15 14 10 13 14 15 15 14 12 11 11 11 11 11 10 10 10 10 10 10 10 11 10
5 4 4 4 5 6 7 8 8 9 10 11 12 15 19 24 25 24 22 10 12 13 13 13 14 15 14 12 11 10 11 11 11 10 9 9 9 9 9 9 10 11 10
5 7 5 4 5 5 6 6 7 8 9 9 10 11 12 12 12 13 12 10 10 12 13 14 14 15 14 12 10 9 9 9 10 9 8 7 6 7 8 9 10 10 10
4 4 6 5 4 5 5 6 7 7 8 9 9 12 20 11 10 12 11 11 11 12 13 13 14 14 14 13 11 10 8 7 6 5 4 4 4 4 5 7 8 8 8
4 4 3 4 4 4 5 5 6 6 7 9 9 11 17 10 9 10 10 11 10 10 11 12 12 12 13 12 12 12 9 7 5 4 2 2 1 2 4 5 7 7 9
3 4 4 4 4 5 5 4 5 5 6 7 8 9 9 9 9 10 11 11 11 11 11 11 11 12 13 12 11 10 10 9 7 6 4 4 4 4 5 6 8 9 10
3 4 4 4 3 4 4 5 5 5 6 6 6 7 8 8 9 11 11 11 11 11 11 11 11 15 19 15 11 10 10 9 8 7 7 6 6 6 6 7 8 10 10
3 3 3 3 3 4 4 5 5 5 5 6 6 7 7 8 9 9 10 10 12 11 13 12 11 13 18 19 15 11 13 14 12 8 8 7 8 8 8 9 8 9 9
3 3 3 3 4 4 4 4 5 5 5 6 6 6 7 8 8 8 9 10 11 11 11 11 14 17 18 15 16 16 13 13 13 12 8 7 8 8 9 9 11 10 11
Wind_Direction
73 57 44 29 23 17 8 354 344 336 335 334 330 327 326 323 323 321 315 314 313 309 305 297 286 279 275 267 256 253 252 249 265 266 236 223 215 218 219 213 210 210 217
142 87 46 20 7 356 341 331 326 322 320 318 317 317 317 318 315 311 307 304 299 298 298 297 293 289 278 271 262 255 251 246 258 270 257 227 223 217 217 214 210 210 212
172 152 2 337 334 326 319 316 315 310 308 308 307 307 308 308 307 305 300 296 291 286 285 285 286 285 283 277 270 267 260 251 247 259 261 232 226 213 214 217 210 206 207
184 193 269 304 315 318 320 321 318 314 312 310 306 301 298 299 301 299 297 294 291 287 281 277 276 272 274 274 273 269 266 261 254 256 258 234 221 208 202 207 208 204 212
184 216 282 312 325 332 331 327 324 322 319 314 312 309 306 302 299 303 303 299 296 293 287 281 276 274 270 272 271 269 264 264 261 258 258 238 218 203 211 194 211 205 218
180 269 332 338 340 340 335 331 325 319 316 313 310 308 305 304 308 310 307 302 296 291 289 287 284 279 277 277 275 273 267 261 258 255 258 251 240 219 208 202 206 201 223
138 346 344 346 345 342 335 326 319 315 311 308 306 305 303 304 308 308 306 303 295 290 289 288 285 282 282 280 279 277 273 267 261 255 254 252 249 225 212 214 211 214 219
91 342 359 10 347 330 321 313 310 308 305 304 303 302 299 300 306 307 305 300 291 287 286 286 286 286 284 285 282 274 268 263 260 259 256 256 251 234 219 220 218 223 220
30 27 45 8 326 314 306 303 303 302 299 297 295 296 296 299 303 302 299 292 286 287 287 285 285 285 285 286 283 277 274 269 268 261 255 256 255 249 232 219 216 213 225
82 50 5 327 306 297 296 297 296 294 293 295 294 294 293 292 295 297 297 290 287 288 287 286 285 285 287 287 282 277 274 272 268 264 260 261 258 253 242 225 218 219 220
77 348 312 298 288 285 285 286 290 291 292 291 292 292 289 287 290 294 294 290 285 286 285 285 283 286 287 287 284 279 277 279 273 264 257 252 249 244 239 230 220 221 223
346 298 287 281 280 282 279 284 285 287 291 290 291 292 289 287 287 289 290 289 288 286 284 283 280 282 282 281 279 274 278 280 274 265 255 247 241 237 234 230 226 223 226
280 278 275 272 267 270 276 286 290 286 287 293 295 294 292 286 285 290 291 290 288 284 276 276 278 281 282 281 278 277 276 273 266 259 254 247 240 234 226 225 226 227 227
260 269 271 272 274 272 272 280 284 287 288 290 290 290 291 291 291 289 284 285 285 283 280 277 277 277 275 272 271 272 267 264 258 253 252 251 243 229 222 217 219 220 222
258 264 273 274 273 279 277 272 281 274 276 289 290 292 299 300 298 302 304 301 296 290 293 284 277 271 263 258 257 256 256 261 259 248 244 244 240 229 221 212 211 211 213
262 272 279 285 282 285 292 295 292 295 299 301 301 302 303 303 309 311 312 311 311 309 307 295 290 284 275 268 262 259 256 258 261 255 244 239 235 227 219 208 206 207 208
251 270 279 285 289 293 296 299 304 308 308 309 312 314 314 316 319 319 320 321 322 324 316 303 298 293 286 276 266 260 259 259 260 260 252 240 235 228 216 208 204 204 202
253 263 267 269 277 285 289 291 293 299 308 311 315 319 323 325 325 328 332 335 326 325 311 306 303 297 290 280 269 261 260 262 261 259 255 244 234 228 218 207 202 198 193
255 257 258 264 271 279 287 291 293 294 297 301 308 318 324 324 331 336 340 331 319 320 319 316 311 307 299 286 272 263 258 259 259 258 256 247 235 224 215 204 197 187 178
251 264 270 270 277 283 289 293 297 300 303 306 310 316 319 328 336 334 335 327 324 321 321 320 320 320 320 313 296 278 268 263 261 257 252 246 231 216 205 194 188 183 179
248 263 272 275 273 278 284 289 294 299 303 306 308 314 334 340 327 324 326 328 327 325 325 324 324 326 329 330 325 313 297 286 278 269 255 241 221 204 189 180 174 169 162
241 251 258 265 271 277 281 284 288 294 299 304 311 319 333 334 325 325 327 328 327 325 325 325 326 330 332 335 338 339 341 341 337 336 345 8 57 114 131 140 144 144 141
232 251 261 265 271 280 285 282 285 289 297 302 310 319 325 327 327 327 329 329 329 330 332 333 334 338 342 341 344 348 351 351 351 2 26 46 60 77 97 114 123 129 134
235 245 257 269 276 280 285 288 291 295 299 303 308 313 318 321 322 324 327 328 330 331 335 338 340 341 345 349 350 352 357 3 4 14 35 56 66 76 88 99 107 119 124
232 241 250 259 270 277 283 288 292 297 299 302 307 312 315 316 318 321 324 326 328 330 335 338 342 345 346 349 353 358 8 20 25 28 38 54 66 74 84 92 100 108 112
233 241 247 251 258 264 272 282 291 297 299 303 304 304 307 311 313 316 320 324 328 328 331 335 339 343 346 352 357 8 18 32 37 40 45 58 69 78 85 91 97 101 106